Regional Weather Roundup
Issued by NWS

Home | Current Version | Previous Version | Graphics & Text | Print | Product List | Glossary On
Versions: 1 2 3 4 5 6 7 8 9 10 11 12 13 14 15 16 17 18 19 20 21 22 23 24 25 26 27 28 29 30 31 32 33 34 35 36 37 38 39 40 41 42 43 44 45 46 47 48 49 50
000
ASUS45 KSLC 171510
RWRUT

UTAH REGIONAL WEATHER ROUNDUP
NATIONAL WEATHER SERVICE SALT LAKE CITY UT
900 AM MDT THU AUG 17 2017

UTZ001>011-023>025-171600-

NORTHERN UTAH

CITY           SKY/WX    TMP DP  RH WIND       PRES   REMARKS
BRIGHAM CITY   SUNNY     64  43  46 CALM      30.15R
HILL AFB       MOSUNNY   67  39  35 E15       30.16R
LOGAN          SUNNY     65  44  46 CALM      30.15R
OGDEN          SUNNY     70  43  37 S7        30.13R
SALT LAKE CITY MOSUNNY   74  47  38 SE8       30.12R
TOOELE VALLEY  SUNNY     72  39  30 S9        30.14R
WENDOVER       SUNNY     72  43  35 E3        30.13R
HEBER CITY     SUNNY     55  45  67 CALM      30.25S
WEST JORDAN    SUNNY     73  50  44 S13       30.16R

$$

UTZ011>015-024>027-171600-

CENTRAL/NORTHEAST UTAH

CITY           SKY/WX    TMP DP  RH WIND       PRES   REMARKS
PROVO AIRPORT  SUNNY     67  44  43 SE6       30.18R
MOAB/CANYONLAN MOSUNNY   76  36  23 E8        30.15R
DELTA          SUNNY     68  36  30 CALM      30.18R
PRICE          MOSUNNY   65  42  43 NW3       30.25R
ROOSEVELT      SUNNY     63  43  48 CALM      30.25R
VERNAL         SUNNY     65  46  50 CALM      30.23R

$$

UTZ013>016-019>022-027-171600-

SOUTHERN UTAH

CITY           SKY/WX    TMP DP  RH WIND       PRES   REMARKS
BRYCE CANYON   SUNNY     58  38  47 W3        30.38R
CEDAR CITY     SUNNY     65  44  46 CALM      30.23R
MILFORD        SUNNY     66  41  40 S9        30.19S
ST GEORGE      SUNNY     74  43  32 S3        30.09R
HANKSVILLE     SUNNY     68  36  30 CALM      30.18R
BLANDING       MOSUNNY   70  28  21 CALM      30.32S

$$

REGIONAL REPORTS     COLORADO/ARIZONA

CITY           SKY/WX    TMP DP  RH WIND       PRES   REMARKS
CRAIG, CO      CLOUDY    61  41  47 NE3       30.29R
GRAND JUNCTION CLOUDY    69  39  33 SE13      30.20R
RIFLE, CO      CLOUDY    62  40  44 SE6       30.26S
MONTROSE, CO   SUNNY     64  38  38 S5        30.27S
CORTEZ, CO     SUNNY     64  36  35 CALM      30.28R
COLORADO CITY    N/A     70  46  43 SE3       30.23R
PAGE, AZ       SUNNY     77  36  22 CALM      30.15R
GRAND CANYON   SUNNY     65  43  44 CALM      30.33R
KINGMAN, AZ    SUNNY     79  44  28 E6        30.10R
FLAGSTAFF, AZ  SUNNY     62  46  55 CALM      30.35S

$$

REGIONAL REPORTS    NEVADA/IDAHO/WYOMING

CITY           SKY/WX    TMP DP  RH WIND       PRES   REMARKS
LAS VEGAS, NV  MOSUNNY   83  43  24 CALM      30.00R
ELY, NY        SUNNY     57  43  59 S9        30.28S
ELKO, NV       SUNNY     61  37  41 CALM      30.22R
POCATELLO, ID  SUNNY     68  39  34 W12       30.15R
BURLEY, ID     SUNNY     65  44  46 SW8       30.13R
FORT BRIDGER,    N/A     69  35  28 W8        30.32S
EVANSTON, WY   PTSUNNY   61  37  41 S8        30.31R
ROCK SPRINGS,  CLOUDY    63  38  39 SW5       30.28S
KEMMERER, WY     N/A     55  39  54 N7        30.31S

$$



USA.gov is the U.S. government's official web portal to all federal, state and local government web resources and services.